TimeMDT,TemperatureF,Dew PointF,Humidity,Sea Level PressureIn,VisibilityMPH,Wind Direction,Wind SpeedMPH,Gust SpeedMPH,PrecipitationIn,Events,Conditions,WindDirDegrees,DateUTC
12:53 AM,66.9,43.0,42,29.90,10.0,SE,5.8,-,N/A,,Clear,140,2012-09-04 06:53:00
1:53 AM,66.0,46.0,48,29.90,10.0,SSE,8.1,-,N/A,,Clear,150,2012-09-04 07:53:00
2:53 AM,64.9,46.0,50,29.91,10.0,SE,9.2,-,N/A,,Clear,140,2012-09-04 08:53:00
3:53 AM,64.9,46.0,50,29.92,10.0,South,8.1,-,N/A,,Clear,170,2012-09-04 09:53:00
4:53 AM,64.0,45.0,50,29.91,10.0,SE,9.2,-,N/A,,Clear,130,2012-09-04 10:53:00
5:53 AM,64.0,45.0,50,29.91,10.0,SSE,10.4,-,N/A,,Clear,150,2012-09-04 11:53:00
6:53 AM,63.0,42.1,46,29.94,10.0,SE,6.9,-,N/A,,Clear,130,2012-09-04 12:53:00
7:53 AM,66.0,43.0,43,29.97,10.0,ESE,8.1,-,N/A,,Clear,110,2012-09-04 13:53:00
8:53 AM,71.1,42.1,35,29.98,10.0,South,8.1,-,N/A,,Clear,170,2012-09-04 14:53:00
9:53 AM,75.9,41.0,29,29.98,10.0,SE,8.1,-,N/A,,Clear,140,2012-09-04 15:53:00
10:53 AM,79.0,39.9,25,29.98,10.0,SSE,4.6,-,N/A,,Clear,160,2012-09-04 16:53:00
11:53 AM,84.0,37.9,19,29.97,10.0,South,5.8,-,N/A,,Partly Cloudy,180,2012-09-04 17:53:00
12:53 PM,86.0,36.0,17,29.96,10.0,Variable,3.5,-,N/A,,Partly Cloudy,0,2012-09-04 18:53:00
1:53 PM,88.0,30.9,13,29.95,10.0,West,6.9,-,N/A,,Partly Cloudy,280,2012-09-04 19:53:00
2:53 PM,91.0,28.0,10,29.94,10.0,NW,11.5,17.3,N/A,,Partly Cloudy,320,2012-09-04 20:53:00
3:53 PM,89.6,26.6,10,30.09,10.0,NNW,9.2,-,N/A,,Partly Cloudy,340,2012-09-04 21:53:00
4:53 PM,89.1,26.1,10,29.92,10.0,North,17.3,24.2,N/A,,Partly Cloudy,350,2012-09-04 22:53:00
5:53 PM,88.0,24.1,10,29.91,10.0,North,11.5,-,N/A,,Partly Cloudy,10,2012-09-04 23:53:00
6:53 PM,86.0,25.0,11,29.90,10.0,NNE,6.9,-,N/A,,Clear,30,2012-09-05 00:53:00
7:53 PM,82.9,25.0,12,29.90,10.0,NE,4.6,-,N/A,,Clear,40,2012-09-05 01:53:00
8:53 PM,75.2,30.2,19,30.06,10.0,ESE,5.8,-,N/A,,Clear,120,2012-09-05 02:53:00
9:53 PM,72.0,34.0,25,29.92,10.0,South,5.8,-,N/A,,Clear,190,2012-09-05 03:53:00
10:53 PM,70.0,33.1,26,29.93,10.0,South,6.9,-,N/A,,Clear,180,2012-09-05 04:53:00
11:53 PM,71.1,33.1,25,29.93,10.0,Calm,Calm,-,N/A,,Clear,0,2012-09-05 05:53:00